Preview of NWS' New Version of Forecast
This preview is not operational and should not be used for support decisions.

Regional Weather Roundup (RWR)

Issued by National Weather Service (NWS)

                            
000
ASCA42 TJSJ 191910
RWRPR 
PUERTO RICO/U.S. VIRGIN ISLANDS HOURLY WEATHER ROUNDUP
NATIONAL WEATHER SERVICE SAN JUAN PR
300 PM AST MON AUG 19 2019

PRZ001>002-007>008-010-192000-
PUERTO RICO
  
CITY           SKY/WX    TMP DP  RH WIND       PRES   REMARKS
SAN JUAN LMM   PTSUNNY   82  77  83 NE13      30.02F HX  91           
AGUADILLA      TSTM      73  73 100 E6        30.02F                  
CEIBA          PTSUNNY   84  79  84 NE8       30.03F HX  96           
$$

VIZ001>002-192000-
U.S. VIRGIN ISLANDS
  
CITY           SKY/WX    TMP DP  RH WIND       PRES   REMARKS
CHARLOTTE AMA  MOSUNNY   90  75  62 NE10      30.01F HX 100           
CHRISTIANSTED  PTSUNNY   88  73  62 E12       30.02F HX  96           
$$

HOURLY WEATHER ROUNDUP FOR THE NEWS MEDIA
  
CITY           SKY/WX    TMP DP  RH WIND       PRES   REMARKS
ORLANDO        PTSUNNY   91  72  53 E8        30.07F HX  98           
NEW YORK       FAIR      86  78  77 S12       29.96F HX  98           
NEWARK         PTSUNNY   93  70  46 W8        29.93F HX  99           
CHICAGO        PTSUNNY   84  68  58 E7        30.01F                  
HARTFORD       FAIR      85  74  69 SW12      29.94F HX  92           
BOSTON         FAIR      93  69  45 SW14      29.89F HX  98           
DALLAS         MOSUNNY   97  69  40 SE8       29.97F HX 103           
PHILADELPHIA   PTSUNNY   92  73  53 SW10      29.96F HX 100           
LOS ANGELES    MOSUNNY   75  61  61 SW9       29.97F                  
WASHINGTON DC  PTSUNNY   94  66  39 NW10      29.99F HX  97